Terminal Aerodrome Forecast
Issued by NWS Grand Forks, ND

Home | Current Version | Previous Version | Graphics & Text | Print | Product List | Glossary On
Versions: 1 2 3 4 5 6 7 8 9 10 11 12 13 14 15 16 17 18 19 20 21 22
000
FTUS43 KFGF 311100
TAFGFK
TAF
KGFK 311134Z 3112/0112 36018G26KT P6SM SCT110
     FM311600 36017G25KT P6SM BKN060
     FM010000 01017KT P6SM BKN070
     FM010900 36011KT P6SM BKN150=

USA.gov is the U.S. government's official web portal to all federal, state and local government web resources and services.